SCP
-0 -0 -0 0 0 0 0 0 0 0 0 0 0 0 0 0 0 0 0 0 0 0
-0 -0 -0 0 0 0 0 0 0 0 0 0 0 0 0 0 -0 0 0 -0 0 0
-0 -0 0 -0 0 0 0 0 0 0 0 0 0 0 0 -0 -0 0 0 0 0 0
-0 -0 -0 0 0 0 0 0 0 0 0 0 0 0 0 0 0 0 0 0 0 0
-0 -0 -0 0 0 0 0 0 0 0 0 0 0 0 0 0 0 0 0 0 0 0
-0 -0 -0 0 0 0 0 0 0 0 0 0 0 0 0 0 0 0 0 0 0 0
0 0 -0 0 0 0 0 0 0 0 0 0 0 0 0 0 0 0 0 0 0 0
0 0 0 -0 -0 0 0 0 0 0 0 0 0 0 0 0 0 0 0 0 0 0
0 0 0 0 0 0 0 0 0 0 0 -0 -0 0 -0 0 0 0 -0 -0 -0 -0
0 0 0 0 -0 0 0 0 0 0 0 0 0 -0 -0 -0 0 -0 -0 -0 -0 0
0 -0 0 0 0 0 0 -0 0 0 0 -0 0 0 -0 0 0 0 0 0 0 0
0 -0 -0 -0 0 0 0 0 0 -0 -0 0 0 0 0 0 0 0 0 0 0 0
-0 -0 -0 -0 -0 -0 -0 0 0 0 0 0 0 0 -0 -0 0 -0 -0 -0 -0 -0
-0 -0 -0 -0 -0 0 0 0 0 0 -0 -0 -0 -0 -0 -0 -0 -0 0 0 0 0
Wind_Speed_500mb
7 8 7 7 8 7 4 6 16 25 39 47 55 57 47 53 58 52 54 55 53 46
10 7 9 3 3 4 5 7 11 17 35 47 49 56 44 47 48 47 44 43 38 41
10 9 6 3 3 8 8 10 8 4 23 26 43 56 49 42 35 37 37 39 38 38
13 8 4 3 7 8 9 13 9 10 14 30 41 44 39 36 33 35 38 40 41 38
15 10 4 6 8 6 9 11 16 21 19 23 42 37 34 27 26 26 28 31 33 24
13 10 2 7 12 13 13 14 14 18 26 27 25 26 29 26 18 11 32 32 35 24
16 13 3 10 11 13 16 20 25 23 19 20 24 27 28 25 17 22 15 11 11 16
21 19 17 14 16 16 16 23 29 24 28 25 24 23 23 20 17 19 16 16 22 18
24 23 21 21 24 21 21 22 22 23 25 31 29 27 23 21 20 31 23 19 16 18
24 25 24 26 24 28 28 27 26 28 27 27 26 21 16 16 15 16 19 18 14 13
24 26 25 26 25 25 29 24 23 24 23 20 17 11 12 11 14 14 15 13 11 9
21 23 24 26 27 23 23 21 18 15 11 10 10 14 16 17 18 14 10 7 6 6
20 21 21 20 19 21 24 22 20 14 11 13 11 10 9 6 3 6 7 9 8 7
16 17 17 19 18 18 20 19 18 14 11 11 17 13 8 8 9 9 10 12 11 13
Wind_Direction_500mb
338 306 307 339 336 342 102 5 9 350 200 202 205 205 208 201 197 206 211 221 224 218
355 328 309 342 1 30 91 104 48 336 183 201 201 198 202 202 206 215 218 210 206 218
2 331 316 299 17 31 68 96 92 353 144 177 182 188 189 194 192 188 190 193 203 211
14 13 345 11 41 43 91 115 108 79 92 135 153 163 173 190 194 194 196 200 209 215
6 9 48 88 111 92 94 133 104 100 114 114 148 164 168 156 159 180 192 209 208 193
18 359 31 112 125 116 96 120 120 119 102 127 137 150 156 158 158 198 201 229 226 236
32 27 53 119 125 114 102 126 124 112 111 138 149 148 148 158 180 144 170 196 222 195
61 58 77 109 126 107 111 117 117 113 96 93 151 172 177 178 187 197 209 197 190 197
72 70 84 107 119 117 109 106 113 109 121 126 117 115 119 131 163 174 172 188 201 215
86 79 77 99 114 127 115 102 114 124 128 120 114 108 123 129 157 155 162 152 152 182
111 102 92 89 108 124 133 119 111 105 104 105 108 120 134 145 136 153 154 156 176 192
123 120 113 113 110 103 106 128 131 125 117 139 148 152 156 156 155 152 148 169 184 188
150 145 138 134 129 129 138 139 137 133 142 155 160 158 189 190 187 200 202 202 214 244
161 158 159 161 162 157 148 147 150 146 165 158 163 165 179 207 220 243 256 243 281 287
Wind_Speed_850mb
7 8 7 7 8 7 4 6 16 25 39 47 55 57 47 53 58 52 54 55 53 46
10 7 9 3 3 4 5 7 11 17 35 47 49 56 44 47 48 47 44 43 38 41
10 9 6 3 3 8 8 10 8 4 23 26 43 56 49 42 35 37 37 39 38 38
13 8 4 3 7 8 9 13 9 10 14 30 41 44 39 36 33 35 38 40 41 38
15 10 4 6 8 6 9 11 16 21 19 23 42 37 34 27 26 26 28 31 33 24
13 10 2 7 12 13 13 14 14 18 26 27 25 26 29 26 18 11 32 32 35 24
16 13 3 10 11 13 16 20 25 23 19 20 24 27 28 25 17 22 15 11 11 16
21 19 17 14 16 16 16 23 29 24 28 25 24 23 23 20 17 19 16 16 22 18
24 23 21 21 24 21 21 22 22 23 25 31 29 27 23 21 20 31 23 19 16 18
24 25 24 26 24 28 28 27 26 28 27 27 26 21 16 16 15 16 19 18 14 13
24 26 25 26 25 25 29 24 23 24 23 20 17 11 12 11 14 14 15 13 11 9
21 23 24 26 27 23 23 21 18 15 11 10 10 14 16 17 18 14 10 7 6 6
20 21 21 20 19 21 24 22 20 14 11 13 11 10 9 6 3 6 7 9 8 7
16 17 17 19 18 18 20 19 18 14 11 11 17 13 8 8 9 9 10 12 11 13
Wind_Direction_850mb
338 306 307 339 336 342 102 5 9 350 200 202 205 205 208 201 197 206 211 221 224 218
355 328 309 342 1 30 91 104 48 336 183 201 201 198 202 202 206 215 218 210 206 218
2 331 316 299 17 31 68 96 92 353 144 177 182 188 189 194 192 188 190 193 203 211
14 13 345 11 41 43 91 115 108 79 92 135 153 163 173 190 194 194 196 200 209 215
6 9 48 88 111 92 94 133 104 100 114 114 148 164 168 156 159 180 192 209 208 193
18 359 31 112 125 116 96 120 120 119 102 127 137 150 156 158 158 198 201 229 226 236
32 27 53 119 125 114 102 126 124 112 111 138 149 148 148 158 180 144 170 196 222 195
61 58 77 109 126 107 111 117 117 113 96 93 151 172 177 178 187 197 209 197 190 197
72 70 84 107 119 117 109 106 113 109 121 126 117 115 119 131 163 174 172 188 201 215
86 79 77 99 114 127 115 102 114 124 128 120 114 108 123 129 157 155 162 152 152 182
111 102 92 89 108 124 133 119 111 105 104 105 108 120 134 145 136 153 154 156 176 192
123 120 113 113 110 103 106 128 131 125 117 139 148 152 156 156 155 152 148 169 184 188
150 145 138 134 129 129 138 139 137 133 142 155 160 158 189 190 187 200 202 202 214 244
161 158 159 161 162 157 148 147 150 146 165 158 163 165 179 207 220 243 256 243 281 287